Tracking 30995 objects as of 5-Jul-2025
HD Live streaming from Space Station
objects crossing your sky now

COSMOS 2251 DEB

Track COSMOS 2251 DEB now!
10-day predictions


NORAD ID: 40228
Int'l Code: 1993-036BVH
Perigee: 745.8 km
Apogee: 781.6 km
Inclination: 74.1 °
Period: 100.0 minutes
Semi major axis: 7134 km
RCS: Unknown
Launch date: June 16, 1993
Source: Commonwealth of Independent States (former USSR) (CIS)
Launch site: PLESETSK MISSILE AND SPACE COMPLEX (PKMTR)

Note: This is SATELLITE DEBRIS
Your satellite tracking list
Your tracking list is empty




NASA's NSSDC Master Catalog

Two Line Element Set (TLE):
1 40228U 93036BVH 25185.37928332  .00000567  00000-0  18568-3 0  9994
2 40228  74.0524 198.7029 0025093 302.2826 121.0496 14.40582456565972
Source of the keplerian elements: AFSPC